Date,TemperatureHighF,TemperatureAvgF,TemperatureLowF,DewpointHighF,DewpointAvgF,DewpointLowF,HumidityHigh,HumidityAvg,HumidityLow,PressureMaxIn,PressureMinIn,WindSpeedMaxMPH,WindSpeedAvgMPH,GustSpeedMaxMPH,PrecipitationSumIn
2013-2-1,23.7,17.7,12.4,2.8,-19.6,-99.9,52,30,27,30.03,29.76,2,0,9,0.00
2013-2-2,23.4,15.3,7.9,-5.1,-49.9,-99.9,40,15,23,29.94,29.88,1,0,7,0.00
2013-2-3,23.5,16.2,-0.6,-2.0,-32.7,-99.9,46,24,27,29.85,29.71,1,0,9,0.08
2013-2-4,6.3,6.3,6.3,-99.9,-99.9,-99.9,0,0,100,29.85,29.85,0,0,0,0.00
2013-2-5,23.9,17.4,0.7,8.2,-21.6,-99.9,57,36,36,29.79,29.62,0,0,7,0.00
2013-2-6,33.4,19.4,1.4,6.1,-25.0,-99.9,56,27,23,30.15,29.94,0,0,7,0.04
2013-2-7,34.5,29.8,24.6,21.7,16.5,12.0,66,57,50,30.15,29.94,0,0,5,0.00
2013-2-8,28.6,23.7,18.5,19.6,8.6,-99.9,76,55,35,30.21,29.88,2,0,16,0.00
2013-2-9,9.5,9.4,9.1,-99.9,-99.9,-99.9,0,0,100,30.27,30.27,0,0,0,0.00
2013-2-10,38.5,29.2,10.9,27.1,1.2,-99.9,77,48,42,30.12,29.62,0,0,5,0.20
2013-2-11,39.4,35.9,33.8,31.1,22.7,14.9,81,60,41,29.56,29.32,4,1,14,0.36
2013-2-12,36.7,30.8,26.6,9.1,6.9,3.7,44,36,29,29.82,29.71,3,0,12,0.00
2013-2-13,40.1,33.9,21.2,13.1,10.2,-99.9,47,38,29,29.74,29.59,1,0,9,0.00
2013-2-14,42.3,33.9,27.3,29.3,20.9,13.3,69,59,43,29.62,29.50,0,0,5,0.08
2013-2-15,34.0,25.0,19.4,6.8,-1.7,-99.9,47,32,22,29.97,29.74,1,0,12,0.00
2013-2-16,30.4,17.3,5.5,0.0,-41.0,-99.9,47,20,23,30.00,29.88,2,0,9,0.00
2013-2-17,25.3,14.7,2.1,1.6,-44.4,-99.9,57,17,24,30.06,29.97,1,0,9,0.08
2013-2-18,40.8,31.1,16.9,15.4,8.1,-0.2,49,38,26,30.03,29.53,1,0,8,0.00
2013-2-19,36.0,29.7,19.2,28.6,11.9,-3.8,78,49,30,29.62,29.17,4,2,16,0.00
2013-2-20,15.1,14.3,12.6,-6.7,-20.7,-99.9,37,30,31,30.09,29.79,1,0,9,0.00
2013-2-21,25.0,21.0,9.0,9.1,-3.3,-99.9,54,39,27,30.30,30.18,1,0,8,0.00
2013-2-22,31.5,28.5,24.1,20.8,17.9,13.6,68,64,61,30.15,29.76,0,0,5,0.00
2013-2-23,39.7,33.6,28.0,27.7,15.5,8.8,78,49,30,29.76,29.68,0,0,8,0.00
2013-2-24,46.9,33.5,18.9,24.4,10.7,-99.9,76,42,22,30.00,29.76,2,0,11,0.20
2013-2-25,42.4,34.1,28.0,18.9,14.1,9.7,52,44,34,30.12,30.06,0,0,4,0.04
2013-2-26,40.3,35.5,27.5,22.3,17.8,14.5,64,49,37,30.03,29.68,2,1,10,0.04
2013-2-27,35.4,33.4,32.2,32.7,30.3,27.7,90,88,82,29.53,29.50,2,0,10,0.16
2013-2-28,34.5,31.2,27.9,32.7,24.2,9.9,93,77,46,29.85,29.50,4,1,12,0.08